Flight Track Log - Related Links

Times and Time Zones

All times are in EDT time to prevent confusion due to time zone crossing. See the FLG4262 flight status page for this flight to view local times or setup timezone preferences in your user account.

Time Position Orientation Groundspeed Altitude Reporting Facility
EDT Latitude Longitude Course Direction KTS MPH feet Rate Location/Type
Thu 05:28:10 PM 42.2256 -75.9225 25° Northeast 230 265 4,400  Level Cleveland Center
Thu 05:29:12 PM 42.2656 -75.9964 306° West 259 298 6,600 2,323 Climbing Cleveland Center
Thu 05:30:14 PM 42.2892 -76.0856 290° West 256 295 9,200 2,032 Climbing Cleveland Center
Thu 05:31:16 PM 42.3133 -76.1764 290° West 257 296 10,800 1,935 Climbing Cleveland Center
Thu 05:32:18 PM 42.3467 -76.3064 289° West 300 345 13,200 2,000 Climbing Cleveland Center
Thu 05:34:22 PM 42.4047 -76.5261 294° West 311 358 17,000 1,733 Climbing Cleveland Center
Thu 05:35:25 PM 42.4342 -76.6417 289° West 322 371 18,600 1,496 Climbing Cleveland Center
Thu 05:40:35 PM 42.5917 -77.2608 325° Northwest 325 374 26,300 1,300 Climbing Cleveland Center
Thu 05:42:00 PM 42.5853 -77.4372 283° West  Level Estimated
Thu 05:42:39 PM 42.6503 -77.4956 283° West 322 371 28,000  Level Cleveland Center
Thu 05:43:41 PM 42.6567 -77.6244 274° West 346 398 28,000  Level Cleveland Center
Thu 05:44:00 PM 42.4246 -77.7536 291° West  Level Estimated
Thu 05:44:44 PM 42.6617 -77.7886 272° West 374 430 28,000  Level Cleveland Center
Thu 05:45:00 PM 42.5026 -77.8286 325° Northwest  Level FlightAware
Thu 05:45:46 PM 42.6661 -77.9103 273° West 374 430 28,000  Level Cleveland Center
Thu 05:46:00 PM 42.5806 -77.9037 325° Northwest  Level FlightAware
Thu 05:46:48 PM 42.6708 -78.0844 272° West 385 443 28,000  Level Cleveland Center
Thu 05:47:50 PM 42.6742 -78.2314 272° West 386 444 28,000  Level Cleveland Center
Thu 05:49:54 PM 42.6811 -78.5258 271° West 391 450 28,000  Level Cleveland Center
Thu 05:50:56 PM 42.6839 -78.6739 272° West 392 451 28,000  Level Cleveland Center
Thu 05:51:58 PM 42.6875 -78.8472 272° West 385 443 28,000  Level Cleveland Center
Thu 05:53:00 PM 42.6897 -78.9906 271° West 380 437 28,000  Level Cleveland Center
Thu 05:54:03 PM 42.6928 -79.1336 272° West 380 437 28,000  Level Cleveland Center
Thu 05:55:05 PM 42.6944 -79.2778 271° West 381 438 28,000  Level Cleveland Center
Thu 05:56:07 PM 42.6961 -79.4208 271° West 379 436 28,000  Level Cleveland Center
Thu 05:57:09 PM 42.6983 -79.5628 271° West 379 436 28,000  Level Cleveland Center
Thu 05:58:11 PM 42.7003 -79.7353 271° West 381 438 28,000  Level Cleveland Center
Thu 05:59:13 PM 42.7017 -79.8786 271° West 380 437 28,000  Level Cleveland Center
Thu 06:00:15 PM 42.7017 -80.0108 270° West 380 437 28,000  Level Cleveland Center
Thu 06:01:17 PM 42.7033 -80.1528 271° West 377 434 28,000  Level Cleveland Center
Thu 06:02:19 PM 42.7042 -80.3178 270° West 374 430 28,000  Level Cleveland Center
Thu 06:04:24 PM 42.7058 -80.6008 271° West 371 427 28,000 -434 Level Cleveland Center
Thu 06:06:28 PM 42.7056 -80.8858 268° West 373 429 26,200 -903 Descending Cleveland Center
Thu 06:07:30 PM 42.6911 -81.0225 262° West 371 427 25,200 -710 Descending Cleveland Center
Thu 06:09:34 PM 42.6569 -81.3261 259° West 371 427 24,000 -387 Descending Cleveland Center
Thu 06:10:36 PM 42.6397 -81.4644 260° West 370 426 24,000 -532 Level Cleveland Center
Thu 06:11:38 PM 42.6233 -81.6050 261° West 370 426 22,900 -1,306 Descending Cleveland Center
Thu 06:12:40 PM 42.6069 -81.7425 261° West 370 426 21,300 -1,488 Descending Cleveland Center
Thu 06:13:43 PM 42.5914 -81.8694 261° West 330 380 19,800 -1,344 Descending Cleveland Center
Thu 06:14:45 PM 42.5792 -81.9803 262° West 303 349 18,500 -1,355 Descending Cleveland Center
Thu 06:15:47 PM 42.5658 -82.0903 261° West 301 346 17,000 -1,306 Descending Cleveland Center
Thu 06:16:49 PM 42.5525 -82.1928 260° West 282 325 15,800 -1,371 Descending Cleveland Center
Thu 06:17:32 PM 42.5403 -82.2903 260° West 277 319 14,600 -1,452 Descending Cleveland Center
Thu 06:17:51 PM 42.5372 -82.3158 261° West 280 322 14,300 -1,111 Descending Cleveland Center
Thu 06:18:53 PM 42.5253 -82.4181 261° West 278 320 13,100 -1,186 Descending Cleveland Center
Thu 06:19:17 PM 42.5178 -82.4658 258° West 273 314 12,600 -919 Descending Cleveland Center
Thu 06:20:57 PM 42.4875 -82.6031 253° West 244 281 11,200 -879 Descending Cleveland Center
Thu 06:21:13 PM 42.4767 -82.6331 244° Southwest 231 266 10,900 -968 Descending Cleveland Center
Thu 06:21:59 PM 42.4603 -82.6808 245° Southwest 234 269 10,200 -1,082 Descending Cleveland Center
Thu 06:22:14 PM 42.4478 -82.7142 243° Southwest 225 259 9,800 -1,143 Descending Cleveland Center
Thu 06:23:02 PM 42.4283 -82.7706 245° Southwest 227 261 9,000 -984 Descending Cleveland Center
Thu 06:23:15 PM 42.4214 -82.7897 244° Southwest 225 259 8,800 -968 Descending Cleveland Center
Thu 06:24:04 PM 42.4000 -82.8489 244° Southwest 226 260 8,000 -984 Descending Cleveland Center
Thu 06:24:16 PM 42.3925 -82.8706 245° Southwest 231 266 7,800 -871 Descending Cleveland Center
Thu 06:25:06 PM 42.4131 -82.9222 298° West 238 274 7,100 -774 Descending Cleveland Center
Thu 06:25:18 PM 42.4272 -82.9375 321° Northwest 252 290 7,000 -82 Descending Cleveland Center
Thu 06:26:19 PM 42.4814 -82.9986 320° Northwest 253 291 7,000  Level Cleveland Center
Thu 06:27:10 PM 42.5083 -83.0375 313° West 224 258 7,000  Level Cleveland Center
Thu 06:27:26 PM 42.5014 -83.0664 252° West 169 194 7,000 -194 Level Cleveland Center
Thu 06:28:12 PM 42.4908 -83.0964 244° Southwest 178 205 6,800 -492 Descending Cleveland Center
Thu 06:28:27 PM 42.4781 -83.1256 239° Southwest 175 201 6,500 -857 Descending Cleveland Center
Thu 06:29:29 PM 42.4414 -83.1686 221° Southwest 183 211 5,700 -826 Descending Cleveland Center
Thu 06:30:16 PM 42.4125 -83.1911 210° Southwest 179 206 5,000 -936 Descending Cleveland Center
Thu 06:31:18 PM 42.3722 -83.2211 209° Southwest 171 197 4,000 -912 Descending Cleveland Center
Thu 06:32:21 PM 42.3308 -83.2514 208° Southwest 169 194 3,100 -973 Descending Cleveland Center
Thu 06:32:32 PM 42.3147 -83.2639 210° Southwest 171 197 2,800 -871 Descending Cleveland Center
Thu 06:33:23 PM 42.2894 -83.2822 208° Southwest 169 194 2,200 -776 Descending Cleveland Center
Thu 06:34:28 PM 42.2481 -83.3139 210° Southwest 128 147 1,300 -581 Descending Cleveland Center
Thu 06:35:27 PM 42.2225 -83.3322 208° Southwest 135 155 1,000 -305 Descending Cleveland Center
Thu 06:37:00 PM 42.2124 -83.3534 236° Southwest  Level Estimated
Thu 06:44:00 PM 42.2124 -83.3534 236° Southwest  Level Estimated
Thu 06:45:00 PM 42.2124 -83.3534 236° Southwest  Level Estimated
Thu 06:46:00 PM 42.2124 -83.3534 236° Southwest  Level Estimated
Thu 06:47:00 PM 42.2124 -83.3534 236° Southwest  Level Estimated
Thu 06:48:00 PM 42.2124 -83.3534 236° Southwest  Level Estimated
Thu 06:49:00 PM 42.2124 -83.3534 236° Southwest  Level Estimated
Thu 06:50:00 PM 42.2124 -83.3534 236° Southwest  Level Estimated
Thu 06:51:00 PM 42.2124 -83.3534 236° Southwest  Level Estimated

Login

Don't have an account? Register now (free) for customized features, flight alerts, and more!